Flag for China Weather past 2 weeks in Tianjin, Tianjin Municipality, China

37 °F


Feels Like: 37 °F
Forecast: 15 / 35 °F
Wind: 1 mph from North

Location: Tianjin / Zhangguizhu

Current Time: Nov 29, 2015 at 2:25:07 PM

Latest Report: Nov 29, 2015 at 1:30 PM

Visibility: 1 mi

Pressure: 30.27 "Hg

Humidity: 70%

Dew point: 28 °F

Location of TianjinLocation

Historic Weather in Tianjin — Graph


Tianjin temperature yesterday

Maximum temperature yesterday: 34 °F (at 2:30 PM)
Minimum temperature yesterday: 25 °F (at 12:00 AM)
Average temperature yesterday: 30 °F

Past Weeks' High & Low Weather Summary

High54 °F (Nov 14, 1:00 PM)100% (Nov 20, 1:30 AM)30.77 "Hg (Nov 20, 1:30 AM)
Low12 °F (Nov 26, 7:00 AM)30% (Nov 16, 2:30 PM)29.98 "Hg (Nov 14, 1:30 PM)
Average32 °F75%30.39 "Hg
* Reported Nov 14 1:00 PM — Nov 29 1:00 PM, Tianjin, Weather by CustomWeather, © 2015

Note: Actual official high and low records may vary slightly from our data, if they occured in-between our weather recording intervals... More about our weather records


Tianjin weather history for previous 24 hours

Time TempWeatherWind HumidityBarometerVisibility
1:00 PM
Sun, Nov 29
37 °FHaze.1 mph65%30.27 "Hg1 mi
12:30 PM36 °FHaze.3 mph70%30.30 "Hg1 mi
12:00 PM36 °FFog.3 mph70%30.30 "Hg1 mi
11:30 AM36 °FFog.3 mph70%30.30 "Hg1 mi
11:00 AM34 °FFog.6 mph75%30.33 "Hg1 mi
10:30 AM34 °FFog.6 mph75%30.33 "Hg1 mi
10:00 AM32 °FIce fog.8 mph80%30.33 "Hg1 mi
9:30 AM32 °FIce fog.3 mph80%30.33 "Hg1 mi
9:00 AM30 °FIce fog.3 mph86%30.33 "Hg1 mi
8:30 AM30 °FIce fog.3 mph86%30.33 "Hg1 mi
8:00 AM28 °FIce fog.1 mph86%30.30 "Hg1 mi
7:30 AM28 °FIce fog.3 mph93%30.30 "Hg1 mi
7:00 AM28 °FIce fog.3 mph86%30.30 "Hg1 mi
6:00 AM32 °FIce fog.1 mph80%30.30 "Hg1 mi
5:30 AM32 °FIce fog.3 mph80%30.30 "Hg1 mi
4:30 AM32 °FIce fog.3 mph87%30.30 "Hg1 mi
4:00 AM32 °FIce fog.6 mph87%30.33 "Hg1 mi
3:30 AM32 °FIce fog.1 mph87%30.33 "Hg1 mi
3:00 AM32 °FIce fog.3 mph87%30.33 "Hg1 mi
2:30 AM32 °FIce fog.3 mph87%30.33 "Hg1 mi
2:00 AM32 °FIce fog.3 mph87%30.36 "Hg1 mi
1:30 AM34 °FFog.6 mph75%30.36 "Hg1 mi
1:00 AM32 °FIce fog.No wind87%30.36 "Hg1 mi
12:30 AM32 °FIce fog.1 mph87%30.36 "Hg1 mi
12:00 AM32 °FIce fog.1 mph87%30.36 "Hg1 mi
11:30 PM
Sat, Nov 28
32 °FIce fog.1 mph87%30.36 "Hg1 mi
11:00 PM32 °FIce fog.1 mph87%30.39 "Hg1 mi
10:30 PM32 °FIce fog.1 mph87%30.39 "Hg1 mi
10:00 PM32 °FIce fog.1 mph87%30.39 "Hg1 mi
9:30 PM32 °FIce fog.3 mph87%30.39 "Hg1 mi
9:00 PM32 °FIce fog.6 mph87%30.39 "Hg1 mi
8:30 PM32 °FIce fog.6 mph87%30.39 "Hg1 mi
8:00 PM32 °FIce fog.3 mph80%30.39 "Hg1 mi
7:30 PM32 °FIce fog.6 mph80%30.39 "Hg1 mi
7:00 PM32 °FIce fog.3 mph80%30.39 "Hg1 mi
6:30 PM32 °FIce fog.6 mph80%30.39 "Hg1 mi
6:00 PM32 °FIce fog.3 mph80%30.39 "Hg1 mi
5:30 PM32 °FHaze.3 mph75%30.39 "Hg1 mi
5:00 PM32 °FHaze.1 mph75%30.39 "Hg1 mi
4:30 PM32 °FHaze.3 mph75%30.39 "Hg1 mi
4:00 PM34 °FHaze.1 mph70%30.39 "Hg1 mi
2:30 PM34 °FHaze.3 mph65%30.39 "Hg1 mi
2:00 PM32 °FHaze.1 mph69%30.39 "Hg1 mi
Weather by CustomWeather, © 2015

See weather overviewHow to use our weather pages